INNOSAT 16 (RS92S7)

Last updated on Mon Sep 07 2026 00:03:14 GMT+0000 (Coordinated Universal Time)

1 64878U 25155C 26249.58234936 .00003637 00000+0 14322-3 0 9997 2 64878 97.4657 216.5380 0008359 256.7553 103.2753 15.26233623 93080
UTC large
Height (km)
Speed (km/s)
/
Latitude / Longitude
Inclination (degrees)
Orbital Period (minutes)
Azimuth
Elevation
Range (km)
Doppler Factor

Next 0 passes for location: London (51.5072 / 0.1276)

No passes found over London.
INNOSAT 16 (RS92S7)